User: anonymous   Login
Location: Climax
(33.2048°N, 96.4497°W)
Time: 04:40:39
(UTC+00:00)
Language:

Cosmos 1602 - Orbit

View from above orbital plane
View from above orbital plane
View from above satellite
View from above satellite

Ground track
Ground track

The orbit data is extracted from the following two-line orbital elements,

1 15331U 84105A   22139.86270672  .00005263  00000-0  27419-3 0  9998
2 15331  82.5384   1.4990 0013644 185.9603 174.1470 15.15709823 53832
Epoch (UTC): 19 May 2022 20:42:17
Eccentricity: 0.0013644
inclination: 82.5384°
perigee height: 509 km
apogee height: 528 km
right ascension of ascending node: 1.4990°
argument of perigee: 185.9603°
revolutions per day: 15.15709823
mean anomaly at epoch: 174.1470°
orbit number at epoch: 5383

The dashed part of the orbit path shows where the satellite is in the earth's shadow,  

DLR